STARLINK-34506, 64432

Orbit data source: Space-Track

STARLINK-34506, 64432 is a payload satellite owned by SpaceX/Seattle (US) in LEO that was launched on Tue, 17 Jun 2025 UTC via an FALCON 9 launch vehicle from the Air Force Western Test Range (AFWTR). Payload-class satellites include a variety of spacecraft equipped with specific instruments for various scientific and technological missions. These include communications satellites like Starlink; space stations such as the ISS; scientific satellites like the Hubble; Earth observation satellites from companies like Planet Labs, Umbra, and HawkEye 360; GPS; miniature CubeSats for education and research; and military/defense satellites.

Loading next visibility...
Identifier
64432, 2025-129W
Orbit
LEO
Country
Flag of USUS
Related business
Manufacturer
SpaceX/Seattle
Mission
Operational Commercial Communications
Bus & Motor
STARLINK V2MO, Unknown motor
Mass
575 kg wet, ~530 kg dry
Launch date (UTC)
2025-06-17 (1 year ago)
Launch vehicle
FALCON 9
Launch site
Air Force Western Test Range (AFWTR)
Object type
Payload
Rocket body
Debris
Shape & HBR
Box + 2 Pan, 17.7 m
Radar Cross Section
36.964 m², Large (>1 m²)

Expand to show TLE details & history
Last TLE update: 10 hours ago

TLE from 10 hours ago
0 STARLINK-34506
1 64432U 25129W   26171.44664245  .00002529  00000-0  21960-3 0  9999
2 64432  70.0003 175.1923 0003955 267.5787  92.4919 14.98339151 56620
Epoch: 2026-06-20T10:43Z
TLE epoch observation values (Epoch: 2026-06-20T10:43:09.907Z)
Latitude
-0.00006°
Longitude
105.73985°
Altitude
574.572 km
Speed
7.574 km/s
True Right ascension
11h 40m 46s
True Declination
0° 00' 00"
Sunlit
Object was in daylight at epoch
Visualization orbit readout
Latitude
Unknown
Longitude
Unknown
Altitude
Unknown
Speed
Unknown
Apparent Right ascension
Unknown
Apparent Declination
Unknown
Sunlit
N/A
Visualization observer readout
Local Sidereal Time
07:12:47
Azimuth
Unknown
Elevation
Unknown
Doppler factor
Unknown
Orbital elements
Apogee altitude
572.724 km
Perigee altitude
567.228 km
Semi-major axis
6,948.113 km
Eccentricity
0.0004
Inclination
70.0003°
RAAN
175.1923°
Arg. of periapsis
267.5787°
True anomaly
92.53718°
Mean anomaly
92.4919°
Eccentric anomaly
92.51454°
Mean motion
3.74751 °/min
Orbital period
96.06 mins
BSTAR
0.0002196
Loading maneuver chart data...
Computing Atmospheric mass density...
Loading historical data...
Loading historical data...
Loading historical data...
Loading historical data...
Loading historical data...
Loading historical data...
Loading historical data...

Documentation

Showing up to 5 results
|